Location: Pinhey's Point
(45.4411°N, 75.9539°W)
Time: 07:59:37
(UTC-05:00)

Iridium 65 - Visible Passes

Search period start: 11 February 2016 00:00
Search period end: 21 February 2016 00:00
Orbit: 776 x 779 km, 86.4° (Epoch: 10 February)

Date Brightness Start Highest point End Pass type
(mag) Time Alt. Az. Time Alt. Az. Time Alt. Az.
11 Feb 7.8 05:58:10 10° NNE 06:02:36 27° ENE 06:06:59 10° SE visible
11 Feb 5.6 18:56:51 10° SSE 19:01:53 52° E 19:06:57 10° NNE visible
11 Feb 7.9 20:39:01 10° WSW 20:42:56 21° WNW 20:46:52 10° NNW visible
12 Feb 8.4 05:25:33 10° NNE 05:28:43 16° ENE 05:31:51 10° ESE visible
12 Feb 6.3 18:24:05 10° SE 18:28:33 29° E 18:33:01 10° NNE visible
12 Feb 7.0 20:04:21 10° SW 20:09:08 36° W 20:13:57 10° NNW visible
13 Feb 6.0 06:31:16 10° N 06:36:28 67° E 06:41:39 10° SSE visible
13 Feb 6.9 17:52:02 10° ESE 17:55:19 17° ENE 17:58:37 10° NE visible
13 Feb 5.9 19:30:19 10° SSW 19:35:28 64° W 19:40:41 10° N visible
14 Feb 7.2 05:57:57 10° NNE 06:02:50 38° E 06:07:39 10° SSE visible
14 Feb 5.4 18:56:45 10° S 19:01:56 74° E 19:07:09 10° N visible
14 Feb 8.3 20:40:16 10° WSW 20:43:16 15° WNW 20:46:17 10° NW visible
15 Feb 8.1 05:25:01 10° NNE 05:29:02 22° ENE 05:33:02 10° SE visible
15 Feb 5.9 18:23:40 10° SSE 18:28:31 41° E 18:33:23 10° NNE visible
15 Feb 7.6 20:05:03 10° SW 20:09:23 26° WNW 20:13:44 10° NNW visible
16 Feb 8.6 04:52:50 10° NE 04:55:06 13° ENE 04:57:22 10° E visible
16 Feb 5.6 06:31:20 10° N 06:36:35 87° W 06:41:48 10° S visible
16 Feb 6.6 19:30:40 10° SSW 19:35:38 45° W 19:40:39 10° N visible
17 Feb 6.4 05:57:53 10° N 06:03:01 53° E 06:08:06 10° SSE visible
17 Feb 5.6 18:56:48 10° S 19:02:01 80° W 19:07:16 10° N visible
17 Feb 8.8 20:42:32 10° W 20:43:39 11° WNW 20:44:47 10° NW visible
18 Feb 7.5 05:24:42 10° NNE 05:29:18 30° ENE 05:33:52 10° SE visible
18 Feb 5.6 18:23:26 10° SSE 18:28:32 58° E 18:33:39 10° N visible
18 Feb 8.2 20:06:02 10° WSW 20:09:40 19° WNW 20:13:20 10° NNW visible
19 Feb 8.4 04:51:56 10° NNE 04:55:28 18° ENE 04:58:57 10° ESE visible
19 Feb 7.3 19:31:13 10° SW 19:35:51 32° WNW 19:40:31 10° NNW visible
20 Feb 5.8 05:57:54 10° N 06:03:09 75° E 06:08:22 10° S visible
20 Feb 6.3 18:57:02 10° SSW 19:02:09 56° W 19:07:18 10° N visible
